Location: Newark
(36.0797°N, 3.9744°E)
Time: 15:02:42
(UTC+00:00)

Vanguard 2 - Pass Details

Date: 06 December 2019
Orbit: 553 x 2938 km, 32.9° (Epoch: 18 January)

Event Time Altitude Azimuth Distance (km) Brightness Sun altitude
Exits shadow 02:45:42 65° 180° (S) 3,126 10.2 -46.7°
Maximum altitude 02:47:01 67° 160° (SSE) 3,095 10.3 -46.4°
Drops below altitude 10° 03:03:02 10° 83° (E) 5,143 12.3 -43.2°
Sets 03:06:33 0° 81° (E) 5,912 12.9 -42.5°
